This is the latest recevied weather packets stored in our database for station/object KF4CQ. If no packets are shown the sender has not sent any weather packets the latest 10 day(s).
| Time | Temp. | Humidity | Pressure | Rain* | Wind** | Luminosity | Snow |
|---|---|---|---|---|---|---|---|
| 1777723695 | 22.22° C | 98% | 1011.1 hPa | 0 mm | - | 57 W/m² | - |
| 1777723391 | 22.22° C | 98% | 1010.9 hPa | 0 mm | - | 51 W/m² | - |
| 1777723089 | 22.22° C | 99% | 1011 hPa | 0 mm | - | 50 W/m² | - |
| 1777722786 | 21.67° C | 99% | 1011 hPa | 0 mm | - | 60 W/m² | - |
| 1777722482 | 21.67° C | 99% | 1011.3 hPa | 0 mm | - | 47 W/m² | - |
| 1777722179 | 21.11° C | 99% | 1011.1 hPa | 0 mm | - | 31 W/m² | - |
| 1777721876 | 21.11° C | 99% | 1011 hPa | 0 mm | - | 30 W/m² | - |
| 1777721574 | 21.11° C | 99% | 1011 hPa | 0 mm | - | 26 W/m² | - |
| 1777721272 | 21.11° C | 99% | 1010.9 hPa | 0 mm | - | 18 W/m² | - |
| 1777720969 | 21.11° C | 99% | 1011.1 hPa | 0 mm | - | 19 W/m² | - |
| 1777720666 | 21.11° C | 99% | 1011 hPa | 0 mm | - | 17 W/m² | - |
| 1777720364 | 21.11° C | 99% | 1010.9 hPa | 0 mm | - | 13 W/m² | - |
| 1777720061 | 21.11° C | 99% | 1010.8 hPa | 0 mm | - | 10 W/m² | - |
| 1777719759 | 21.11° C | 99% | 1010.8 hPa | 0 mm | - | 7 W/m² | - |
| 1777719457 | 21.11° C | 99% | 1010.9 hPa | 0 mm | - | 5 W/m² | - |
| 1777719152 | 21.11° C | 99% | 1010.7 hPa | 0 mm | - | 3 W/m² | - |
| 1777718851 | 21.11° C | 99% | 1010.4 hPa | 0 mm | - | 2 W/m² | - |
| 1777718548 | 21.11° C | 99% | 1010.3 hPa | 0 mm | - | 1 W/m² | - |
| 1777718245 | 21.11° C | 99% | 1010.3 hPa | 0 mm | - | 0 W/m² | - |
| 1777717943 | 21.11° C | 99% | 1010.4 hPa | 0 mm | - | 0 W/m² | - |
| 1777717640 | 21.11° C | 99% | 1010.3 hPa | 0 mm | - | 0 W/m² | - |
| 1777717336 | 21.11° C | 99% | 1010.4 hPa | 0 mm | - | 0 W/m² | - |
| 1777717034 | 21.11° C | 99% | 1010.1 hPa | 0 mm | - | 0 W/m² | - |
| 1777716732 | 21.11° C | 99% | 1010.1 hPa | 0 mm | - | 0 W/m² | - |
| 1777716430 | 21.11° C | 99% | 1010.2 hPa | 0 mm | - | 0 W/m² | - |
* Rain latest hour (hover to see other rain measurements)
** Current wind speed in m/s (hover to see current wind gust speed)